1315180828447,3.99084
1315180888447,4.03374
1315180948447,4.04327
1315181008447,4.08067
1315181068447,4.11295
1315181128447,4.12569
1315181188447,4.08632
1315181248447,4.12637
1315181308447,4.15566
1315181368447,4.17058
1315181428447,4.18611
1315181488447,4.20705
1315181548447,4.25466
1315181608447,4.25644
1315181668447,4.27985
1315181728447,4.31682
1315181788447,4.35286
1315181848447,4.36190
1315181908447,4.41310
1315181968447,4.40936
1315182028447,4.43329
1315182088447,4.50774
1315182148447,4.56298
1315182208447,4.57234
1315182268447,4.64081
1315182328447,4.64810
1315182388447,4.67519
1315182448447,4.73518
1315182508447,4.74744
1315182568447,4.74517
1315182628447,4.77753
1315182688447,4.77109
1315182748447,4.75952
1315182808447,4.76237
1315182868447,4.83182
1315182928447,4.84919
1315182988447,4.81559
1315183048447,4.80778
1315183108447,4.85564
1315183168447,4.84330
1315183228447,4.81576
1315183288447,4.80472
1315183348447,4.78829
1315183408447,4.76681
1315183468447,4.79751
1315183528447,4.71741
1315183588447,4.71106
1315183648447,4.67338
1315183708447,4.62889
1315183768447,4.60461
1315183828447,4.57225
1315183888447,4.54000
1315183948447,4.48231
1315184008447,4.43994
1315184068447,4.45003
1315184128447,4.41034
1315184188447,4.40952
1315184248447,4.38965
1315184308447,4.39433
1315184368447,4.35547
1315184428458,4.35360
1315184488458,4.33818
1315184548458,4.28409
1315184608458,4.24355
1315184668458,4.30179
1315184728458,4.25302
1315184788458,4.28647
1315184848458,4.27058
1315184908458,4.28657
1315184968458,4.25178
1315185028458,4.25087
1315185088458,4.25241
1315185628458,4.31237
1315185688458,4.36068
1315185748458,4.35900
1315185808458,4.38503
1315185868458,4.41510
1315185928458,4.40083
1315185988458,4.46269
1315186048458,4.50832
1315186108458,4.53063
1315186168458,4.51533
1315186228458,4.54133
1315186288458,4.54670
1315186348458,4.54523
1315186408458,4.55560
1315186468458,4.55422
1315186528458,4.51353
1315186588458,4.55978
1315186648457,4.56257
1315186708457,4.56103
1315186768457,4.58767
1315186828457,4.60326
1315186888457,4.55104
1315186948457,4.58693
1315187008458,4.57145
1315187068458,4.56937
1315187128458,4.60802
1315187188458,4.66386
1315187248458,4.63826
1315187308458,4.68090
1315187368458,4.69109
1315187428458,4.69444
1315187488458,4.70643
1315187548458,4.69256
1315187608458,4.75403
1315187668458,4.69794
1315187728458,4.70749
1315187788458,4.69883
1315187848458,4.72224
1315187908458,4.66121
1315187968457,4.68065
1315188028468,4.62282
1315188088468,4.61458
1315188148468,4.60518
1315188208468,4.60674
1315188268468,4.58321
1315188328468,4.59294
1315188388468,4.59162
1315188448468,4.58709
1315188508468,4.57854
1315188568468,4.60488
1315188628468,4.55279
1315188688468,4.52510
1315188748468,4.55268
1315188808468,4.55432
1315188868468,4.53544
1315188928468,4.52526
1315188988468,4.51582
1315189048468,4.49332
1315189108468,4.49963
1315189168468,4.47803
1315189228468,4.47453
1315189288468,4.44990
1315189348468,4.47936
1315189408468,4.42095
1315189468468,4.44877
1315189528468,4.42449
1315189588468,4.42146
1315189648468,4.43675
1315189708468,4.40211
1315189768468,4.42999
1315189828468,4.44084
1315189888468,4.44823
1315189948468,4.46257
1315190008468,4.44537
1315190068468,4.38446
1315190128468,4.41203
1315190188468,4.37124
1315190248468,4.36505
1315190308468,4.36434
1315190368468,4.40643
1315190428468,4.39069
1315190488468,4.39551
1315190548468,4.33437
1315190608468,4.37496
1315190668468,4.38140
1315190728468,4.37053
1315190788468,4.37384
1315190848468,4.34020
1315190908468,4.31361
1315190968468,4.31669
1315191028468,4.32840
1315191088468,4.30100
1315191148468,4.30254
1315191208468,4.30439
1315191268468,4.29505
1315191328468,4.27687
1315191388468,4.31993
1315191448468,4.26623
1315191508468,4.29175
1315191568468,4.29750
1315191628477,4.25874
1315191688477,4.26969
1315191748477,4.26439
1315191808477,4.26359
1315191868477,4.23388
1315191928478,4.25565
1315191988477,4.28421
1315192048477,4.25531
1315192108477,4.24556
1315192168477,4.23993
1315192228477,4.24254
1315192288478,4.26014
1315192348478,4.25846
1315192408478,4.21371
1315192468478,4.22823
1315192528478,4.21712
1315192588478,4.21279
1315192648477,4.22942
1315192708477,4.19932
1315192768477,4.20329
1315192828477,4.25219
1315192888477,4.22838
1315192948477,4.21285
1315193008477,4.23061
1315193068477,4.20750
1315193128477,4.22743
1315193188477,4.21977
1315193248477,4.21931
1315193308477,4.22762
1315193368477,4.22492
1315193428477,4.24885
1315193488477,4.23623
1315193548477,4.22564
1315193608478,4.19177
1315193668478,4.20742
1315193728478,4.20199
1315193788478,4.19934
1315193848478,4.23188
1315193908478,4.21606
1315193968478,4.23889
1315194028477,4.24767
1315194088477,4.25047
1315194148477,4.22481
1315194208477,4.20428
1315194268477,4.23772
1315194328477,4.26532
1315194388477,4.23130
1315194448477,4.23688
1315194508477,4.22053
1315194568477,4.24495
1315194628478,4.25694
1315194688477,4.26864
1315194748477,4.31416
1315194808477,4.30733
1315194868477,4.32773
1315194928477,4.38011
1315194988478,4.37629
1315195048478,4.38465
1315195108478,4.41072
1315195168478,4.46964
1315195228487,4.49961
1315195288487,4.51065
1315195348487,4.60141
1315195408487,4.62477
1315195468487,4.66248
1315195528487,4.67905
1315195588487,4.66326
1315195648487,4.70927
1315195708487,4.69410
1315195768487,4.67174
1315195828487,4.74887
1315195888487,4.76725
1315195948487,4.84749
1315196008487,4.91997
1315196068487,5.03770
1315196128487,5.14059
1315196188487,5.23603
1315196248487,5.29199
1315196308487,5.32487
1315196368487,5.33427
1315196428487,5.35667
1315196488487,5.36689
1315196548487,5.37287
1315196608487,5.43994
1315196668487,5.41831
1315196728487,5.38016
1315196788487,5.39121
1315196848487,5.36761
1315196908487,5.37660
1315196968487,5.38273
1315197028487,5.41681
1315197088487,5.41834
1315197148487,5.34193
1315197208487,5.33950
1315197268487,5.19547
1315197328487,5.10996
1315197388487,5.04381
1315197448487,5.00146
1315197508487,4.89702
1315197568487,4.90444
1315197628487,4.84547
1315197688487,4.78698
1315197748487,4.75765
1315197808487,4.66305
1315197868487,4.65505
1315197928487,4.58896
1315197988487,4.58156
1315198048487,4.56556
1315198108487,4.54550
1315198168487,4.52020
1315198228487,4.52588
1315198288487,4.54057
1315198348487,4.53080
1315198408487,4.50176
1315198468487,4.49664
1315198528487,4.50767
1315198588487,4.45143
1315198648487,4.45780
1315198708487,4.46230
1315198768487,4.42033
1315198828497,4.45537
1315198888497,4.42487
1315198948497,4.40810
1315199008497,4.39632
1315199068497,4.40234
1315199128497,4.40090
1315199188497,4.38852
1315199248497,4.38260
1315199308497,4.41548
1315199368497,4.37111
1315199428497,4.34252
1315199488497,4.34491
1315199548497,4.32287
1315199608497,4.32366
1315199668497,4.30350
1315199728497,4.27410
1315199788497,4.30478
1315199848497,4.28883
1315199908497,4.24628
1315199968497,4.28540
1315200028497,4.24681
1315200088497,4.21849
1315200148497,4.20349
1315200208497,4.22158
1315200268497,4.21457
1315200328497,4.21897
1315200388497,4.20182
1315200448497,4.20766
1315200508497,4.23106
1315200568497,4.21691
1315200628497,4.22181
1315200688497,4.20019
1315200748497,4.18596
1315200808497,4.17819
1315200868497,4.21083
1315200928497,4.16507
1315200988497,4.21572
1315201048497,4.23468
1315201108497,4.19581
1315201168497,4.21855
1315201228497,4.21792
1315201288497,4.24971
1315201348497,4.30267
1315201408497,4.26782
1315201468497,4.30130
1315201528497,4.28343
1315201588497,4.28843
1315201648497,4.27036
1315201708497,4.27881
1315201768497,4.29609
1315201828497,4.26254
1315201888497,4.26011
1315201948497,4.23838
1315202008497,4.22108
1315202068497,4.18508
1315202128497,4.20323
1315202188497,4.18506
1315202248497,4.15994
1315202308497,4.19405
1315202368497,4.20600
1315202428507,4.23126
1315202488507,4.25172
1315202548507,4.29695
1315202608507,4.36275
1315202668507,4.33079
1315202728507,4.31465
1315202788507,4.28744
1315202848507,4.25898
1315202908507,4.24791
1315202968507,4.19056
1315203028507,4.19499
1315203088507,4.20460
1315203148507,4.18429
1315203208507,4.18048
1315203268507,4.16665
1315203328507,4.15830
1315203388507,4.12891
1315203448507,4.09330
1315203508507,4.16551
1315203568507,4.09826
1315203628507,4.14110
1315203688507,4.13551
1315203748507,4.15157
1315203808507,4.21389
1315203868507,4.20245
1315203928507,4.23741
1315203988507,4.25399
1315204048507,4.22250
1315204108507,4.27733
1315204168507,4.27299
1315204228507,4.22551
1315204288507,4.20414
1315204348507,4.22398
1315204408507,4.18260
1315204468507,4.16881
1315204528507,4.16867
1315204588507,4.17984
1315204648507,4.17887
1315204708507,4.16656
1315204768507,4.24278
1315204828507,4.16641
1315204888507,4.11600
1315204948507,4.11733
1315205008507,4.13342
1315205068507,4.14428
1315205128507,4.13200
1315205188507,4.12444
1315205248507,4.09498
1315205308507,4.13581
1315205368507,4.12491
1315205428507,4.14258
1315205488507,4.13193
1315205548507,4.17546
1315205608507,4.18784
1315205668507,4.16437
1315205728507,4.18247
1315205788507,4.20119
1315205848507,4.15786
1315205908507,4.19597
1315205968507,4.19883
1315206028517,4.16954
1315206088517,4.16240
1315206148517,4.13680
1315206208517,4.13618
1315206268517,4.13225
1315206328517,4.13721
1315206388517,4.10294
1315206448517,4.13775
1315206508517,4.12274
1315206568517,4.12506
1315206628517,4.15309
1315206688517,4.10432
1315206748517,4.15579
1315206808517,4.16370
1315206868517,4.16612
1315206928517,4.18946
1315206988517,4.18044
1315207048517,4.20584
1315207108517,4.18773
1315207168517,4.18851
1315207228517,4.18197
1315207288517,4.17732
1315207348517,4.15955
1315207408517,4.16976
1315207468517,4.18761
1315207528517,4.17359
1315207588517,4.14608
1315207648517,4.15488
1315207708517,4.19414
1315207768517,4.15185
1315207828517,4.17979
1315207888517,4.22099
1315207948517,4.20774
1315208008517,4.20514
1315208068517,4.22115
1315208128517,4.28152
1315208188517,4.30491
1315208248517,4.32337
1315208308517,4.37663
1315208368517,4.33439
1315208428517,4.32944
1315208488517,4.33860
1315208548517,4.34214
1315208608517,4.40446
1315208668517,4.45110
1315208728517,4.49595
1315208788517,4.42794
1315208848517,4.48836
1315208908517,4.56114
1315208968517,4.53266
1315209028517,4.61401
1315209088517,4.62729
1315209148517,4.66392
1315209208517,4.67696
1315209268517,4.71913
1315209328517,4.71680
1315209388517,4.68935
1315209448517,4.76465
1315209508517,4.81471
1315209568517,4.86185
1315209628527,4.98325
1315209688527,4.99767
1315209748527,5.04815
1315209808527,5.02466
1315209868527,5.01410
1315209928527,5.01555
1315209988527,4.97801
1315210048527,4.94001
1315210108527,4.87097
1315210168527,4.83011
1315210228527,4.81858
1315210288527,4.75348
1315210348527,4.72259
1315210408527,4.66383
1315210468527,4.64768
1315210528527,4.59802
1315210588527,4.53891
1315210648527,4.50620
1315210708527,4.44863
1315210768527,4.44114
1315210828527,4.44577
1315210888527,4.38353
1315210948527,4.38454
1315211008527,4.38619
1315211068527,4.31250
1315211128527,4.32731
1315211188527,4.31143
1315211248527,4.30608
1315211308527,4.30124
1315211368527,4.30541
1315211428527,4.27211
1315211488527,4.27445
1315211548527,4.24455
1315211608527,4.20541
1315211668527,4.26042
1315211728527,4.23281
1315211788527,4.21861
1315211848527,4.18972
1315211908527,4.19644
1315211968527,4.18109
1315212028527,4.15210
1315212088527,4.18883
1315212148527,4.19246
1315212208527,4.19902
1315212268527,4.19837
1315212328527,4.18672
1315212388527,4.20816
1315212448527,4.18255
1315212508527,4.22192
1315212568527,4.19875
1315212628527,4.15051
1315212688527,4.19965
1315212748527,4.20461
1315212808527,4.16963
1315212868527,4.19202
1315212928527,4.11939
1315212988527,4.15529
1315213048527,4.12981
1315213108527,4.13224
1315213168527,4.13196
1315213228537,4.13743
1315213288537,4.11487
1315213348537,4.10666
1315213408537,4.08237
1315213468537,4.10792
1315213528537,4.09203
1315213588537,4.07783
1315213648537,4.07677
1315213708537,4.09259
1315213768537,4.12010
1315213828537,4.09169
1315213888537,4.07649
1315213948537,4.09679
1315214008537,4.06731
1315214068537,4.07744
1315214128537,4.11214
1315214188537,4.05459
1315214248537,4.10586
1315214308537,4.11467
1315214368537,4.09264
1315214428537,4.12844
1315214488537,4.10133
1315214548537,4.11184
1315214608537,4.08009
1315214668537,4.09093
1315214728537,4.09040
1315214788537,4.07603
1315214848537,4.09231
1315214908537,4.10363
1315214968537,4.09197
1315215028537,4.07580
1315215088537,4.05571
1315215148537,4.06875
1315215208537,4.05713
1315215268537,4.06988
1315215328537,4.08072
1315215388537,4.03788
1315215448537,4.01901
1315215508537,4.03578
1315215568537,4.04331
1315215628537,4.05502
1315215688537,4.01743
1315215748537,4.00923
1315215808537,4.02952
1315215868537,4.03601
1315215928537,4.03105
1315215988537,4.06947
1315216048537,4.00513
1315216108537,4.02070
1315216168537,4.00703
1315216228537,3.97510
1315216288537,4.01876
1315216348537,4.03423
1315216408537,4.02872
1315216468537,3.98541
1315216528537,4.00312
1315216588537,3.99287
1315216648537,3.99528
1315216708537,3.98860
1315216768537,3.97603
1315216828548,3.98662
1315216888548,3.98271
1315216948548,3.98377
1315217008548,4.01103
1315217068548,4.00916
1315217128548,3.99646
1315217188548,4.00473
1315217248548,3.99792
1315217308548,3.95219
1315217368548,4.01108
1315217428548,3.99359
1315217488548,4.01359
1315217548548,3.95675
1315217608548,4.01827
1315217668548,3.98592
1315217728548,3.96182
1315217788548,4.01100
1315217848548,3.98988
1315217908548,3.98644
1315217968548,3.97190
1315218028548,3.96520
1315218088548,3.99329
1315218148548,3.98546
1315218208548,4.01544
1315218268548,4.00712
1315218328548,4.00528
1315218388548,4.02240
1315218448548,4.03410
1315218508548,4.02148
1315218568548,4.01225
1315218628548,4.00097
1315218688548,4.00355
1315218748548,4.03578
1315218808548,4.02437
1315218868548,4.01695
1315218928548,3.99977
1315218988548,4.01873
1315219048548,4.01184
1315219108548,3.98792
1315219168548,3.99234
1315219228548,3.99355
1315219288548,3.99439
1315219348548,3.96876
1315219408548,4.01258
1315219468548,3.98346
1315219528548,3.96085
1315219588548,3.99509
1315219648548,3.99270
1315219708548,3.98888
1315219768548,3.99180
1315219828548,4.05128
1315219888548,3.98771
1315219948548,3.99878
1315220008548,4.02526
1315220068548,3.99416
1315220128548,4.05589
1315220188548,4.02181
1315220248548,4.02351
1315220308548,4.05011
1315220368548,4.05947
1315220428558,4.05314
1315220488558,4.03562
1315220548558,4.06836
1315220608558,4.01774
1315220668558,4.03864
1315220728558,4.03367
1315220788558,4.05207
1315220848558,4.02461
1315220908558,3.98583
1315220968558,4.04283
1315221028558,4.03510
1315221088558,4.07046
1315221148558,4.07756
1315221208558,4.06746
1315221268558,4.04584
1315221328558,4.08708
1315221388558,4.06645
1315221448558,4.08880
1315221508558,4.11716
1315221568558,4.15762
1315221628558,4.14307
1315221688558,4.17754
1315221748558,4.25032
1315221808558,4.21535
1315221868558,4.24256
1315221928558,4.22932
1315221988558,4.28243
1315222048558,4.27619
1315222108558,4.30498
1315222168558,4.28852
1315222228558,4.24171
1315222288558,4.29137
1315222348558,4.31083
1315222408558,4.27479
1315222468558,4.28147
1315222528558,4.33282
1315222588558,4.32134
1315222648558,4.32206
1315222708558,4.31526
1315222768558,4.29176
1315222828558,4.31773
1315222888558,4.32147
1315222948558,4.30483
1315223008558,4.27234
1315223068558,4.32994
1315223128558,4.32237
1315223188558,4.32610
1315223248558,4.31241
1315223308558,4.27259
1315223368558,4.29107
1315223428558,4.31992
1315223488558,4.29695
1315223548558,4.29099
1315223608558,4.33074
1315223668558,4.28131
1315223728558,4.28473
1315223788558,4.26812
1315223848558,4.23659
1315223908558,4.25884
1315223968558,4.28272
1315224028568,4.23901
1315224088568,4.26186
1315224148568,4.22966
1315224208568,4.20397
1315224268568,4.18766
1315224328568,4.22430
1315224388568,4.18471
1315224448568,4.21007
1315224508568,4.17722
1315224568568,4.16090
1315224628568,4.15469
1315224688568,4.13111
1315224748568,4.10525
1315224808568,4.16405
1315224868568,4.13612
1315224928568,4.10470
1315224988568,4.10717
1315225048568,4.15549
1315225108568,4.11077
1315225168568,4.12917
1315225228568,4.10636
1315225288568,4.09981
1315225348568,4.07091
1315225408568,4.08293
1315225468568,4.05758
1315225528568,4.06012
1315225588568,4.07854
1315225648568,4.06131
1315225708568,4.08903
1315225768568,4.07774
1315225828568,4.06262
1315225888568,4.09803
1315225948568,4.04932
1315226008568,4.06310
1315226068568,4.06589
1315226128568,4.06069
1315226188568,4.06799
1315226248568,4.07594
1315226308568,4.06262
1315226368568,4.08185
1315226428568,4.07387
1315226488568,4.02677
1315226548568,4.03966
1315226608568,4.10683
1315226668568,4.07185
1315226728568,4.04417
1315226788568,4.06008
1315226848568,4.04696
1315226908568,4.04596
1315226968568,4.07033
1315227028568,4.06764
1315227088568,4.07031
1315227148568,4.04199
1315227208568,4.05448
1315227268568,4.04918
1315227328568,4.09492
1315227388568,4.06729
1315227448568,4.05651
1315227508568,4.03474
1315227568568,4.05652
1315227628579,4.03736
1315227688579,4.02654
1315227748579,4.04053
1315227808579,4.03976
1315227868579,3.99894
1315227928579,4.05481
1315227988579,4.04400
1315228048579,4.06316
1315228108579,4.03152
1315228168579,4.03058
1315228228579,4.00670
1315228288579,4.01830
1315228348579,4.00240
1315228408579,4.00864
1315228468579,4.02767
1315228528579,4.02373
1315228588579,3.98466
1315228648579,4.01698
1315228708579,3.99091
1315228768579,4.01730
1315228828579,4.01379
1315228888579,4.02977
1315228948579,4.01392
1315229008579,4.00537
1315229068579,4.03087
1315229128579,4.03769
1315229188579,4.02746
1315229248579,4.01913
1315229308579,4.02975
1315229368579,4.04706
1315229428579,4.07185
1315229488579,4.05248
1315229548579,4.11334
1315229608579,4.12952
1315229668579,4.11272
1315229728579,4.15165
1315229788579,4.15428
1315229848579,4.20452
1315229908579,4.15533
1315229968579,4.17936
1315230028579,4.16294
1315230088579,4.22013
1315230148579,4.19899
1315230208579,4.21268
1315230268579,4.24971
1315230328579,4.31787
1315230388579,4.28324
1315230448579,4.30001
1315230508579,4.30122
1315230568579,4.29416
1315230628579,4.29365
1315230688579,4.27328
1315230748579,4.28110
1315230808579,4.25749
1315230868579,4.21278
1315230928579,4.19211
1315230988579,4.19814
1315231048579,4.18989
1315231108579,4.16704
1315231168579,4.17101
1315231228590,4.17288
1315231288590,4.20217
1315231348590,4.20900
1315231408590,4.20658
1315231468590,4.24289
1315231528590,4.20232
1315231588590,4.26592
1315231648590,4.20401
1315231708590,4.23929
1315231768590,4.20704
1315231828590,4.17884
1315231888590,4.18475
1315231948590,4.14521
1315232008590,4.13603
1315232068590,4.12993
1315232128590,4.12219
1315232188590,4.09600
1315232248590,4.09503
1315232308590,4.10850
1315232368590,4.07712
1315232428590,4.05985
1315232488590,4.09338
1315232548590,4.09076
1315232608590,4.05286
1315232668590,4.07176
1315232728590,4.03531
1315232788590,4.07845
1315232848590,4.10072
1315232908590,4.03504
1315232968590,4.09594
1315233028590,4.05167
1315233088590,4.05860
1315233148590,4.02591
1315233208590,4.04803
1315233268590,4.01220
1315233328590,4.04458
1315233388590,4.03966
1315233448590,4.03687
1315233508590,4.03620
1315233568590,4.03628
1315233628590,4.03859
1315233688590,3.99894
1315233748590,4.01876
1315233808590,4.04136
1315233868590,4.05482
1315233928590,4.02318
1315233988590,3.97446
1315234048590,4.02922
1315234108590,4.01251
1315234168590,4.01387
1315234228590,4.04239
1315234288590,4.05726
1315234348590,4.02805
1315234408590,4.05201
1315234468590,4.02233
1315234528590,4.03899
1315234588590,4.02792
1315234648590,4.03924
1315234708590,4.02997
1315234768590,4.04681
1315234828601,4.05865
1315234888601,4.08843
1315234948601,4.01507
1315235008601,4.04676
1315235068601,4.04755
1315235128601,4.03114
1315235188601,4.01733
1315235248601,4.04790
1315235308601,4.03665
1315235368601,4.00456
1315235428601,4.02272
1315235488601,4.02454
1315235548601,4.03013
1315235608601,4.03835
1315235668601,4.04746
1315235728601,3.99743
1315235788601,4.02561
1315235848601,4.01141
1315235908601,4.00750
1315235968601,4.02251
1315236028601,4.04125
1315236088601,4.04155
1315236148601,4.07104
1315236208601,4.02644
1315236268601,4.05466
1315236328601,4.03941
1315236388601,4.07208
1315236448601,4.06608
1315236508601,4.02124
1315236568601,4.03789
1315236628601,4.04650
1315236688601,4.02157
1315236748601,4.03267
1315236808601,4.03921
1315236868601,4.03776
1315236928601,4.08355
1315236988601,4.02891
1315237048601,4.04487
1315237108601,4.05338
1315237168601,4.05563
1315237228601,4.07513
1315237288601,4.03583
1315237348601,4.06052
1315237408601,4.06847
1315237468601,4.07871
1315237528601,4.04805
1315237588601,4.08945
1315237648601,4.08910
1315237708601,4.06754
1315237768601,4.06519
1315237828601,4.05863
1315237888601,4.06262
1315237948601,4.02586
1315238008601,4.04303
1315238068601,4.03725
1315238128601,3.99839
1315238188601,4.01929
1315238248601,4.02733
1315238308601,4.02649
1315238368601,4.00871
1315238428613,4.00378
1315238488613,3.99005
1315238548613,4.02759
1315238608613,4.01582
1315238668613,4.01274
1315238728613,4.00323
1315238788613,4.02412
1315238848613,4.00876
1315238908612,3.99714
1315238968612,4.03030
1315239028612,3.99136
1315239088612,4.02812
1315239148612,3.97728
1315239208612,3.98409
1315239268612,3.99586
1315239328613,4.03275
1315239388613,4.01075
1315239448613,4.01533
1315239508613,4.00654
1315239568613,4.01439
1315239628612,4.01779
1315239688613,4.00459
1315239748613,4.00144
1315239808613,4.00602
1315239868613,4.01981
1315239928613,4.00992
1315239988613,3.99798
1315240048613,4.03214
1315240108613,3.98379
1315240168613,4.01594
1315240228613,3.98971
1315240288612,3.97215
1315240348612,4.02922
1315240408612,3.99062
1315240468612,3.99645
1315240528612,4.01513
1315240588612,4.01337
1315240648612,4.00566
1315240708613,3.96980
1315240768613,4.10462
1315240828613,3.95372
1315240888613,3.99054
1315240948612,3.97637
1315241008613,3.99147
1315241068613,3.98590
1315241128613,3.98973
1315241188613,4.02844
1315241248613,4.01981
1315241308613,3.99446
1315241368613,3.99197
1315241428613,4.02014
1315241488613,4.00423
1315241548613,4.04100
1315241608612,4.02785
1315241668612,4.03795
1315241728612,4.02734
1315241788612,4.04918
1315241848612,4.03167
1315241908612,4.07366
1315241968612,4.07498
1315242028624,4.08166
1315242088624,4.08183
1315242148624,4.07822
1315242208624,4.08357
1315242268624,4.04653
1315242328624,4.04122
1315242388624,4.03306
1315242448624,4.01426
1315242508624,4.03065
1315242568624,3.99138
1315242628624,4.01527
1315242688624,3.96809
1315242748624,4.02759
1315242808624,3.99129
1315242868624,3.97349
1315242928624,3.97086
1315242988624,3.98268
1315243048624,3.98194
1315243108624,4.00134
1315243168624,3.96597
1315243228624,3.98296
1315243288624,3.96294
1315243348624,3.97668
1315243408624,3.97609
1315243468624,3.98859
1315243528624,4.00264
1315243588624,3.95258
1315243648624,3.96730
1315243708624,3.98642
1315243768624,3.97332
1315243828624,3.99527
1315243888624,3.95671
1315243948624,3.94929
1315244008624,3.95189
1315244068624,3.96773
1315244128624,3.95872
1315244188624,3.95151
1315244248624,3.94453
1315244308624,3.94248
1315244368624,3.96177
1315244428624,3.97818
1315244488624,3.95261
1315244548624,3.97824
1315244608624,3.96405
1315244668624,3.93567
1315244728624,3.96019
1315244788624,3.96413
1315244848624,3.95058
1315244908624,3.97435
1315244968624,3.96930
1315245028624,3.98113
1315245088624,4.00272
1315245148624,3.95982
1315245208624,3.95787
1315245268624,3.95151
1315245328624,3.98803
1315245388624,3.95573
1315245448624,3.96588
1315245508624,3.97100
1315245568624,3.99279
1315245628636,3.99318
1315245688636,3.98033
1315245748636,3.98500
1315245808636,3.97604
1315245868636,3.96159
1315245928636,3.98619
1315245988636,3.94760
1315246048636,3.94859
1315246108636,3.97259
1315246168636,3.97755
1315246228636,3.95818
1315246288636,4.00845
1315246348636,3.95990
1315246408636,3.99562
1315246468636,3.98234
1315246528636,4.00490
1315246588636,3.99865
1315246648636,3.96888